Theta_e
307 305 305 305 305 306 307 308 309 309 309 312 315 318 322 324 327 332 335 337 335 335 339 340 341 341 340 338 339 344 345 345 343 341 342 341 340 336 333 330 326 318 310
306 305 305 306 306 307 307 307 308 309 310 313 315 319 321 324 326 332 337 340 333 333 334 341 339 340 340 337 336 343 345 344 343 341 341 342 339 335 333 330 324 315 309
305 305 308 308 308 308 308 307 308 308 310 313 315 319 323 326 327 335 337 339 336 332 338 341 340 340 340 337 337 339 343 342 342 342 341 340 338 334 331 327 322 313 311
306 307 307 308 307 308 310 309 309 309 310 314 317 318 325 325 332 337 337 337 336 330 337 339 340 340 340 339 339 339 339 342 343 342 341 339 337 333 330 328 318 313 316
306 307 307 307 307 308 308 309 309 309 310 313 316 319 325 330 333 335 337 338 337 337 336 342 340 339 337 338 339 343 342 343 343 342 340 337 335 332 330 327 320 316 317
307 306 305 305 306 308 310 309 309 309 309 314 317 319 327 331 334 336 337 337 337 336 337 342 340 341 337 334 339 342 341 342 343 341 340 338 336 333 331 327 319 317 316
306 304 304 305 305 307 308 309 309 309 309 312 318 321 327 332 335 333 334 333 335 335 334 337 338 341 340 332 337 343 341 340 341 341 340 339 337 337 335 327 322 317 316
305 304 306 306 307 308 308 309 309 310 310 312 319 322 328 330 333 335 335 334 334 332 332 335 341 342 341 338 330 339 340 340 340 340 339 338 337 338 337 334 327 318 316
306 306 307 306 307 309 310 310 310 310 311 312 317 322 324 329 333 334 333 333 332 331 333 333 335 341 340 336 331 335 339 338 338 340 340 339 338 338 336 331 324 317 316
305 307 307 307 308 309 309 309 309 310 310 313 317 321 323 328 330 333 334 332 330 331 338 337 335 339 338 336 335 331 332 339 342 341 339 339 338 336 335 333 327 316 316
306 307 308 310 311 313 312 310 309 311 312 315 319 322 327 330 332 332 334 333 333 330 332 339 337 336 338 337 337 334 335 338 340 339 339 338 336 333 332 329 323 316 317
306 307 308 310 312 312 314 315 316 318 318 320 322 325 329 331 332 332 334 333 334 333 332 332 332 334 338 341 340 338 336 334 336 339 337 337 334 333 329 325 317 316 320
306 306 307 309 312 313 315 316 316 318 319 319 318 326 330 330 335 332 333 333 333 333 330 330 333 333 337 336 336 336 336 338 337 339 338 335 333 330 322 318 316 319 319
305 304 305 306 311 313 314 313 315 316 317 316 317 328 330 329 329 328 329 333 334 332 333 334 334 333 336 337 335 335 334 337 335 339 338 335 332 325 317 315 318 319 320
304 303 303 304 307 313 313 311 313 313 314 316 317 323 327 328 328 329 329 329 332 332 332 331 333 335 333 333 333 338 342 340 340 339 337 334 330 322 316 317 319 321 320
303 302 302 303 304 307 310 314 313 315 318 320 316 318 325 326 329 330 329 329 330 331 331 332 331 333 334 331 333 338 335 337 337 336 334 333 328 324 316 318 320 320 320
303 303 301 301 303 302 303 303 309 312 316 321 319 322 327 324 325 326 328 330 330 330 331 331 331 327 329 330 332 332 333 335 336 336 333 330 324 321 318 317 319 319 320
303 303 301 301 302 302 300 300 302 303 310 315 321 323 325 326 327 327 326 329 329 327 326 326 330 328 327 329 330 332 333 333 334 332 329 326 324 321 320 318 319 319 319
301 301 301 300 299 299 299 299 299 301 302 308 314 321 324 324 325 326 328 327 326 328 328 324 326 325 327 330 331 332 332 333 332 328 327 325 323 322 320 318 318 318 317
299 299 299 299 299 299 298 298 298 298 300 301 306 311 319 322 323 321 323 326 326 327 327 326 324 326 327 326 327 330 331 331 328 326 323 323 323 322 320 318 317 317 315
298 298 298 298 298 297 298 297 297 297 298 299 302 305 309 315 321 322 322 322 323 325 326 327 327 327 327 326 326 327 329 328 326 324 323 322 321 320 319 317 317 315 314
298 298 298 298 298 297 296 296 296 297 297 298 300 303 306 309 313 317 321 322 321 322 323 324 325 326 327 326 327 328 327 326 324 322 319 320 319 320 317 317 316 314 313
298 298 299 298 297 297 297 297 297 296 297 298 299 301 304 306 308 311 314 318 321 321 321 322 322 324 326 326 326 326 325 324 323 322 320 319 318 318 316 316 313 308 307
299 298 298 298 298 297 297 297 297 297 297 298 299 300 301 303 306 308 310 312 314 317 319 319 320 321 321 322 322 322 323 323 322 321 320 320 317 316 315 311 308 307 309
299 298 298 297 297 297 297 297 297 297 297 298 298 299 300 302 304 306 307 309 310 312 314 316 317 318 319 319 319 320 320 319 319 318 317 318 317 315 313 310 308 309 306
299 298 298 297 297 296 297 297 296 297 297 297 298 299 299 300 301 303 305 307 308 309 310 311 312 313 314 315 316 316 316 315 316 316 316 316 315 313 311 312 309 309 308
Wind_Speed
42 40 38 34 33 34 36 37 36 38 39 43 43 43 41 40 44 45 47 44 57 65 52 55 55 51 52 52 45 44 40 39 36 37 36 32 31 26 25 20 17 13 12
39 38 34 34 32 34 36 37 36 36 35 38 39 41 40 39 46 48 48 49 65 57 52 50 52 56 55 48 51 44 40 37 39 31 37 36 30 29 25 23 19 15 13
42 37 31 32 32 33 34 37 35 34 33 36 37 36 37 34 51 51 48 52 54 57 53 55 56 57 55 49 44 49 42 39 40 37 34 37 35 31 30 25 20 17 15
38 33 32 32 33 36 33 35 35 34 33 34 34 35 36 40 41 44 50 52 59 61 51 54 56 54 58 50 45 43 48 42 42 38 35 40 37 36 31 29 27 22 21
35 33 33 31 33 35 37 36 36 35 35 33 36 33 33 36 35 40 48 54 52 50 51 52 53 55 49 54 49 40 43 43 45 40 37 43 42 40 37 34 28 25 22
34 34 35 34 36 35 37 36 38 40 36 33 34 33 29 28 39 40 48 50 61 45 53 53 54 52 48 56 50 46 40 44 47 39 43 45 42 40 37 35 33 31 29
33 34 35 35 35 36 35 36 37 36 34 31 31 30 27 23 32 32 38 43 53 58 53 54 49 48 54 51 54 50 40 39 39 40 41 40 38 32 34 37 34 33 32
33 35 35 35 35 34 33 36 38 36 32 29 27 28 24 20 27 34 40 42 42 38 37 54 50 55 54 51 54 51 45 37 36 40 34 27 24 24 28 27 34 33 25
33 34 35 35 35 34 35 36 36 36 31 27 27 28 25 21 25 26 31 42 49 43 54 57 65 51 50 50 46 48 45 41 38 34 27 25 20 23 28 33 34 36 31
32 33 33 34 35 36 32 30 29 27 26 23 27 27 30 26 25 24 29 29 38 24 16 61 63 54 49 48 46 46 45 40 40 37 32 29 21 24 23 29 33 40 36
31 31 31 33 32 29 27 22 18 18 17 21 27 31 29 23 22 24 27 39 29 25 19 44 50 44 41 43 46 44 43 42 40 36 34 28 25 25 28 31 32 36 38
30 30 30 30 28 29 26 20 19 16 17 23 28 28 19 21 21 24 29 38 29 34 43 35 31 34 37 41 38 38 40 39 39 35 32 30 30 31 33 32 32 32 26
29 29 29 27 27 27 28 18 25 23 27 26 39 20 15 17 20 18 22 38 37 24 40 35 35 34 29 30 33 39 39 38 37 36 34 32 31 33 34 35 32 28 25
30 29 29 27 24 19 18 23 24 24 29 35 43 6 19 21 20 15 17 29 35 26 34 41 34 30 29 34 33 29 32 36 36 35 36 35 35 35 37 40 37 34 33
28 29 28 27 24 18 17 17 15 14 17 25 36 5 16 25 20 15 20 25 35 31 30 32 27 33 40 32 28 29 29 32 33 35 35 40 37 40 43 41 37 37 36
27 29 26 26 25 22 20 16 13 13 9 8 19 15 16 22 19 14 14 24 34 33 33 33 26 30 27 32 31 35 36 36 35 35 39 38 41 44 48 44 38 37 39
23 24 23 23 24 24 23 23 22 13 7 3 5 18 12 11 14 12 17 23 32 36 30 23 31 28 32 29 31 32 34 35 35 38 38 43 46 46 48 44 42 38 37
19 20 21 20 20 22 22 22 21 23 17 13 7 11 18 14 14 19 15 18 31 29 34 30 45 37 38 36 38 39 38 37 36 37 40 43 46 47 46 46 43 39 39
19 20 19 19 20 19 18 20 21 21 20 16 13 7 7 10 12 10 20 21 23 30 31 35 44 47 43 40 40 38 35 35 36 38 40 44 46 47 46 45 43 42 40
20 17 17 19 21 20 20 20 22 22 21 19 15 13 8 6 9 12 11 14 20 23 29 35 39 41 39 38 38 40 33 32 36 39 41 44 46 46 45 45 45 44 41
20 20 19 20 21 22 22 22 23 23 22 20 17 12 7 6 11 8 9 10 10 13 17 24 29 34 36 36 38 35 32 32 34 36 40 45 46 46 44 44 42 41 41
18 20 21 22 23 24 25 24 24 23 23 21 17 11 7 6 8 12 12 8 8 11 10 12 16 20 21 22 24 26 27 29 33 39 43 44 42 40 41 40 39 35 32
20 22 23 24 24 26 28 28 28 26 24 22 19 16 13 10 9 8 10 11 9 9 10 11 13 17 20 22 20 21 24 26 30 36 40 40 41 38 39 39 37 36 35
21 22 23 26 26 26 26 26 28 28 27 25 22 20 18 15 12 11 9 9 9 10 10 10 11 11 13 15 17 18 22 24 25 30 34 38 39 37 37 36 38 37 34
21 21 22 23 26 26 23 25 24 24 25 27 26 23 21 19 17 15 13 11 10 9 9 9 10 11 11 12 13 15 15 17 21 32 39 39 36 36 38 39 39 38 35
18 20 19 20 23 26 23 20 21 23 22 22 25 25 24 22 20 17 16 14 13 13 12 11 9 9 9 10 10 11 12 14 17 24 32 33 38 39 40 39 40 38 39
Wind_Direction
322 321 315 308 308 307 305 299 293 285 275 271 278 281 282 286 258 247 230 222 200 203 211 224 222 219 221 223 219 224 223 218 208 207 216 213 202 207 210 209 215 220 214
317 315 309 309 308 307 307 303 297 290 276 273 280 281 282 284 250 245 229 213 190 197 209 219 223 224 223 224 217 218 217 219 217 215 210 204 204 206 209 211 204 207 209
318 315 314 316 311 308 305 305 303 296 280 276 283 288 280 280 267 223 221 215 204 201 212 216 222 221 216 220 220 216 220 224 223 221 210 203 199 197 199 202 202 202 192
320 317 313 314 312 312 310 307 305 300 284 279 283 293 296 284 230 222 219 197 194 195 213 222 223 221 216 215 218 218 216 220 218 214 210 196 194 191 200 199 189 194 195
320 320 319 320 318 314 312 306 304 302 283 280 286 292 297 297 238 222 215 198 200 203 213 226 224 224 218 211 213 210 213 217 211 207 200 192 188 192 196 200 200 192 192
323 324 323 323 320 316 315 311 304 301 286 276 283 295 303 280 230 217 213 210 202 195 205 215 226 225 221 214 212 214 213 213 210 202 199 195 193 195 199 201 196 187 188
327 329 326 324 319 316 313 307 307 305 290 275 279 295 292 286 220 200 183 195 212 214 217 212 219 221 220 215 212 214 212 216 216 208 202 199 199 207 206 201 200 206 198
333 330 330 325 320 320 316 311 310 309 296 276 275 291 291 300 245 220 218 217 228 213 211 216 213 214 214 214 213 212 214 219 220 220 225 231 225 225 215 215 204 197 193
335 332 330 329 323 320 314 309 303 304 299 275 273 283 288 298 267 232 218 221 221 226 238 233 212 209 206 204 206 208 212 217 217 219 217 213 220 218 215 205 198 189 187
336 336 336 337 332 326 322 315 309 301 297 277 278 281 299 295 264 234 212 202 200 227 189 185 193 200 196 199 202 203 207 206 204 203 202 204 206 215 217 215 202 191 190
340 340 347 346 341 346 334 332 326 325 310 290 294 291 293 295 245 221 215 210 207 206 161 160 175 183 188 196 204 203 206 203 202 205 199 195 191 193 201 206 204 202 198
342 348 353 352 357 5 357 346 352 349 327 321 311 300 285 272 236 215 197 208 195 190 177 168 172 185 193 197 199 203 207 206 206 199 196 193 187 192 196 196 196 201 213
346 356 354 355 6 20 16 26 37 33 12 352 343 291 262 240 215 201 191 199 194 198 196 191 196 198 195 196 200 204 205 204 203 199 202 198 195 198 189 186 191 194 195
351 357 360 2 4 15 31 28 27 18 359 353 350 277 216 200 183 165 182 193 198 186 193 198 196 198 205 204 196 201 207 204 203 203 202 203 199 196 189 190 189 189 187
356 358 3 4 357 360 2 11 14 23 19 351 350 25 185 183 181 193 183 192 195 202 190 195 190 196 179 175 185 192 195 200 202 202 202 206 199 194 190 192 193 188 191
360 0 5 6 1 1 357 355 352 340 8 22 350 37 116 156 162 174 183 189 195 187 172 173 171 178 161 170 194 194 195 196 200 203 205 205 199 196 192 191 194 198 198
6 3 7 7 3 3 3 6 357 39 25 35 355 14 135 137 161 166 173 178 181 187 189 174 183 176 164 188 204 208 198 196 202 208 206 206 201 196 191 194 195 196 200
6 3 7 9 5 3 5 17 7 14 23 28 50 36 72 76 139 144 146 162 171 163 148 161 177 171 189 199 209 211 202 198 203 206 203 205 202 198 194 198 197 195 199
4 3 8 15 17 13 11 22 26 19 22 22 37 61 62 75 89 127 180 177 171 175 177 161 177 181 199 213 216 209 204 203 204 202 201 205 205 198 198 200 198 197 196
19 16 15 21 23 22 25 28 29 34 31 31 33 49 79 119 117 126 149 198 207 193 188 191 190 202 220 225 220 208 201 206 205 204 202 205 206 201 201 202 201 195 196
25 25 32 34 37 38 33 31 34 36 40 38 37 41 52 112 160 167 149 154 161 181 201 213 218 224 223 221 208 203 205 207 207 206 207 208 206 203 202 201 199 195 196
37 35 38 41 43 44 46 46 42 40 39 40 42 51 68 92 138 165 187 184 163 159 166 183 189 195 200 200 206 208 210 210 209 209 208 208 208 205 202 200 196 195 197
47 47 47 48 47 45 46 44 43 45 45 42 47 56 67 76 88 120 147 171 189 179 172 173 181 190 197 203 204 208 209 210 216 218 212 208 207 206 199 198 195 185 180
50 51 49 47 44 45 46 44 44 46 44 42 46 52 60 69 79 89 105 126 152 172 181 178 178 186 192 202 209 214 216 218 216 218 218 212 209 201 196 194 188 185 181
50 46 47 48 44 41 45 51 48 47 50 47 45 49 56 64 73 80 87 95 105 127 144 158 172 176 184 200 206 210 215 216 219 214 214 215 210 199 196 194 188 182 184
56 52 52 50 43 39 40 44 50 52 51 52 53 49 52 56 60 67 74 85 96 104 113 123 129 143 161 176 193 205 209 210 217 218 214 210 200 196 195 193 187 185 187